Weather History for CYYG - June, 2012

Change the Weather History Date:

Monday, June 4, 2012

  Actual Average Record
Temperature  
Mean Temperature 50 °F -  
Max Temperature 54 °F 68 °F 71 °F (2014)
Min Temperature 45 °F 50 °F 37 °F (1997)
Degree Days  
Heating Degree Days 16    
Moisture  
Dew Point 45 °F    
Average Humidity 86    
Maximum Humidity 100    
Minimum Humidity 72    
Precipitation  
Precipitation 0.04 in 0.12 in - ()
Sea Level Pressure  
Sea Level Pressure 29.81 in    
Wind  
Wind Speed 14 mph ()    
Max Wind Speed 24 mph    
Max Gust Speed 32 mph    
Visibility 13.4 miles    
Events Rain    
Averages and records for this station are not official NWS values.
T = Trace of Precipitation, MM = Missing Value Source: Averaged Metar Reports

Daily Weather History Graph

Daily Weather History Graph

Search for Another Location

Airport or City:

Trip Planner

Search our weather history database for the weather conditions in past years. The results will help you decide how hot, cold, wet, or windy it might be!

Date:

Astronomy

Jun. 04, 2012 Rise Set
Actual Time 5:22 AM ADT 8:59 PM ADT
Civil Twilight 4:44 AM ADT 9:38 PM ADT
Nautical Twilight 3:53 AM ADT 10:29 PM ADT
Astronomical Twilight 2:45 AM ADT 11:38 PM ADT
Moon 9:24 PM ADT (6/4) 5:25 AM ADT (6/4)
Length of Visible Light 16h 53m
Length of Day
15h 37m
Full, 100% of the Moon is Illuminated
Jun 4
Full
Jun 11
Last Quarter
Jun 19
New
Jun 27
First Quarter
Jul 3
Full

Hourly Weather History & Observations

Time (ADT) Temp. Windchill Dew Point Humidity Pressure Visibility Wind Dir Wind Speed Gust Speed Precip Events Conditions
12:00 AM 48.2 °F - 41.0 °F 76% 29.86 in 15.0 mi NE 15.0 mph - N/A   Mostly Cloudy
1:00 AM 48.2 °F - 42.8 °F 82% 29.86 in 15.0 mi ENE 12.7 mph - N/A   Scattered Clouds
2:00 AM 46.4 °F 41.5 °F 42.8 °F 87% 29.84 in 15.0 mi NE 10.4 mph - N/A   Mostly Cloudy
3:00 AM 47 °F - 44 °F 83% 29.83 in 15 mi ENE 10.4 mph - -   Clear
3:00 AM 46.4 °F 41.5 °F 42.8 °F 87% 29.83 in 15.0 mi ENE 10.4 mph - N/A   Scattered Clouds
4:00 AM 46.4 °F 41.5 °F 44.6 °F 93% 29.82 in 15.0 mi NE 10.4 mph - N/A   Scattered Clouds
5:00 AM 46.4 °F 40.7 °F 44.6 °F 93% 29.80 in 15.0 mi NE 12.7 mph 18.4 mph N/A   Mostly Cloudy
6:00 AM 46.4 °F 41.5 °F 44.6 °F 93% 29.79 in 15.0 mi NE 10.4 mph - N/A   Mostly Cloudy
7:00 AM 50.0 °F - 46.4 °F 87% 29.80 in 15.0 mi ENE 13.8 mph - N/A   Mostly Cloudy
8:00 AM 51.8 °F - 46.4 °F 82% 29.80 in 15.0 mi NE 13.8 mph - N/A   Overcast
9:00 AM 53 °F - 47 °F 72% 29.81 in 15 mi NE 20.7 mph - -   Overcast
9:00 AM 53.6 °F - 46.4 °F 77% 29.81 in 15.0 mi NE 20.7 mph - N/A   Overcast
10:00 AM 51.8 °F - 44.6 °F 76% 29.80 in 15.0 mi NE 21.9 mph 27.6 mph N/A   Overcast
11:00 AM 51.8 °F - 46.4 °F 82% 29.80 in 15.0 mi NE 17.3 mph 24.2 mph N/A   Overcast
12:00 PM 51.8 °F - 46.4 °F 82% 29.80 in 15.0 mi NNE 19.6 mph - N/A   Overcast
1:00 PM 51.8 °F - 46.4 °F 82% 29.80 in 15.0 mi NE 18.4 mph 24.2 mph N/A   Overcast
1:13 PM 51.8 °F - - N/A% - 15.0 mi NE 23.0 mph 28.8 mph N/A   Overcast
2:00 PM 51.8 °F - 46.4 °F 82% 29.80 in 15.0 mi NE 17.3 mph 24.2 mph N/A   Overcast
3:00 PM 50 °F - 45 °F 78% 29.80 in 15 mi NE 21.9 mph - -   Overcast
3:00 PM 50.0 °F - 44.6 °F 82% 29.80 in 15.0 mi NE 24.2 mph 31.1 mph N/A   Overcast
3:32 PM 48.2 °F - - N/A% - 15.0 mi NE 20.7 mph 32.2 mph N/A   Overcast
4:00 PM 48.2 °F - 44.6 °F 87% 29.81 in 15.0 mi NE 19.6 mph 25.3 mph N/A   Overcast
5:00 PM 48.2 °F - 44.6 °F 87% 29.81 in 12.0 mi NE 21.9 mph 31.1 mph N/A   Overcast
5:22 PM 48.2 °F - - N/A% - 10.0 mi NE 19.6 mph 25.3 mph N/A Rain Light Rain Showers
6:00 PM 48.2 °F - 46.4 °F 93% 29.80 in 8.0 mi NNE 18.4 mph - N/A Rain Light Rain Showers
6:39 PM 48.2 °F - - N/A% - 8.0 mi NNE 17.3 mph - N/A   Overcast
7:00 PM 48.2 °F - 46.4 °F 93% 29.79 in 10.0 mi NNE 17.3 mph - N/A   Overcast
8:00 PM 46.4 °F 39.8 °F 44.6 °F 93% 29.79 in 12.0 mi NNE 16.1 mph 21.9 mph N/A   Overcast
8:28 PM 46.4 °F 39.5 °F - N/A% - 10.0 mi NNE 17.3 mph - N/A Rain Light Rain Showers
9:00 PM 47 °F - 45 °F 91% 29.78 in 10 mi NNE 16.1 mph - - Rain Light Rain Showers
9:00 PM 46.4 °F 39.8 °F 44.6 °F 93% 29.78 in 10.0 mi NNE 16.1 mph - N/A Rain Light Rain Showers
10:00 PM 46.4 °F 39.8 °F 44.6 °F 93% 29.78 in 10.0 mi NE 16.1 mph - N/A Rain Light Rain Showers
11:00 PM 46.4 °F 40.7 °F 46.4 °F 100% 29.76 in 12.0 mi NE 12.7 mph 19.6 mph N/A   Overcast